"SCET";"TARGET";"ELECTRON_DENSITY";"ERROR_FLAG";"ELECTRON_DENSITY_ERROR";"FREQ_FCE";"MEASURED_VALUE";"MEASURED_ITEM";"FREQ_PLASMA";"FREQ_UPPER_HYBRID";"FREQ_R_EQUALS_ZERO";"FREQ_L_EQUALS_ZERO";"ORBIT_NUMBER";"SATURN_RADIUS";"SATURN_IAU_LONGITUDE";"SATURN_SLS4_S_LONGITUDE";"SATURN_SLS4_N_LONGITUDE";"SATURN_SLS5_S_LONGITUDE";"SATURN_SLS5_N_LONGITUDE";"SATURN_LOCAL_TIME";"SATURN_KRONOGRAPHIC_LATITUDE";"SATURN_MAGNETIC_LATITUDE";"SATURN_L";"SATURN_L_OFFSET";"SATURN_SOLAR_EQUATORIAL_X";"SATURN_SOLAR_EQUATORIAL_Y";"SATURN_SOLAR_EQUATORIAL_Z";"SATURN_ALTITUDE";"ENCELADUS_ENCOUNTER_NUMBER";"ENCELADUS_RADIUS";"ENCELADUS_COROTATIONAL_X";"ENCELADUS_COROTATIONAL_Y";"ENCELADUS_COROTATIONAL_Z";"ENCELADUS_TRUE_ANOMALY";"ENCELADUS_PERIAPSIS_TIME";"JUPITER_RADIUS";"JUPITER_SYSTEMIII_LONGITUDE";"JUPITER_MAGNETIC_LATITUDE";"JUPITER_MAGNETIC_LOCAL_TIME";"JUPITER_L";"IO_PHASE";"EARTH_RADIUS";"EARTH_MAGNETIC_LATITUDE";"EARTH_LOCAL_TIME";"EARTH_L"
"[UTC]";"[0=Saturn, 1=Enceladus, 2=Jupiter, 3=Earth]";"[cm-3]";"[0=automated, 1=manual]";"[normalized density error]";"[Hz]";"[Hz]";"[0=upper hybrid frequency, 1=plasma frequency cutoff]";"[Hz]";"[Hz]";"[Hz]";"[Hz}";"[0, A, B, C, 3, 4, ... , 292, 293]";"[Rs where 1Rs=60268km]";"[degrees]";"[degrees]";"[degrees]";"[degrees]";"[degrees]";"[hours]";"[degrees]";"[degrees where offset=2293km north]";"[Rs where 1Rs=60268km]";"[Rs where 1Rs=60268km and offset=2293km north]";"[Rs where 1Rs=60268km]";"[Rs where 1Rs=60268km]";"[Rs where 1Rs=60268km]";"[km where ellipsoid a,b=60268km and c=54364km]";"[E0, E1, E2, ... , E21, E22]";"[Renc where 1Renc=252.1km]";"[Renc where 1Renc=252.1km]";"[Renc where 1Renc=252.1km]";"[Renc where 1Renc=252.1km]";"[degrees]";"[UTC]";"[Rj where 1Rj=71492km]";"[degrees]";"[degrees using JRM09 model]";"[hours using JRM09 model]";"[Rj where 1Rj=71492km]";"[degrees]";"[Re where 1Re=6378.1366km]";"[degrees]";"[hours]";"[Re where 1Re=6378.1366km]"
2010-03-21T00:00:02.312Z;0;3.1740e+01;0;     0.086; 12208.393;  52046.902; 0;  50594.812;  52046.902;  57065.910;  44857.520;128;   3.630; 225.573;;; 252.311; 309.811;  10.675;  -0.303;  -0.903;   3.630;   3.627;   3.414;  -1.234;  -0.019;;;;;;;;;;;;;;;;;;
2010-03-21T00:00:10.312Z;0;3.1670e+01;0;     0.079; 12208.393;  51986.234; 0;  50532.402;  51986.234;  57003.949;  44795.559;128;   3.631; 225.614;;; 252.352; 309.852;  10.678;  -0.303;  -0.903;   3.631;   3.628;   3.416;  -1.232;  -0.019;;;;;;;;;;;;;;;;;;
2010-03-21T00:00:18.312Z;0;3.1570e+01;0;     0.094; 12208.393;  51909.172; 0;  50453.121;  51909.172;  56925.238;  44716.848;128;   3.632; 225.656;;; 252.393; 309.893;  10.680;  -0.303;  -0.903;   3.632;   3.629;   3.418;  -1.230;  -0.019;;;;;;;;;;;;;;;;;;
2010-03-21T00:00:34.312Z;0;3.2230e+01;0;     0.105; 12208.393;  52420.785; 0;  50979.348;  52420.785;  57447.695;  45239.305;128;   3.634; 225.738;;; 252.475; 309.975;  10.684;  -0.302;  -0.902;   3.634;   3.631;   3.421;  -1.227;  -0.019;;;;;;;;;;;;;;;;;;
2010-03-21T00:00:42.312Z;0;3.1960e+01;0;     0.096; 12151.580;  52199.457; 0;  50765.367;  52199.457;  57203.449;  45051.871;128;   3.635; 225.780;;; 252.516; 310.016;  10.687;  -0.302;  -0.902;   3.635;   3.632;   3.423;  -1.225;  -0.019;;;;;;;;;;;;;;;;;;
2010-03-21T00:00:50.312Z;0;3.1540e+01;0;     0.086; 12151.580;  51872.352; 0;  50428.961;  51872.352;  56869.441;  44717.863;128;   3.636; 225.821;;; 252.557; 310.057;  10.689;  -0.302;  -0.901;   3.636;   3.633;   3.424;  -1.224;  -0.019;;;;;;;;;;;;;;;;;;
2010-03-21T00:00:58.312Z;0;3.1570e+01;0;     0.086; 12151.580;  51896.207; 0;  50453.496;  51896.207;  56893.805;  44742.227;128;   3.637; 225.862;;; 252.598; 310.098;  10.691;  -0.302;  -0.901;   3.638;   3.634;   3.426;  -1.222;  -0.019;;;;;;;;;;;;;;;;;;
2010-03-21T00:01:06.312Z;0;3.1430e+01;0;     0.078; 12151.580;  51786.887; 0;  50341.043;  51786.887;  56782.160;  44630.582;128;   3.638; 225.904;;; 252.639; 310.139;  10.693;  -0.302;  -0.901;   3.639;   3.635;   3.428;  -1.220;  -0.019;;;;;;;;;;;;;;;;;;
2010-03-21T00:01:22.312Z;0;3.2050e+01;0;     0.099; 12151.580;  52268.719; 0;  50836.582;  52268.719;  57274.160;  45122.582;128;   3.640; 225.987;;; 252.721; 310.221;  10.698;  -0.302;  -0.900;   3.641;   3.637;   3.431;  -1.217;  -0.019;;;;;;;;;;;;;;;;;;
2010-03-21T00:01:30.312Z;0;3.1650e+01;0;     0.087; 12094.965;  51947.129; 0;  50519.461;  51947.129;  56927.617;  44832.652;128;   3.641; 226.028;;; 252.762; 310.262;  10.700;  -0.301;  -0.900;   3.642;   3.638;   3.433;  -1.215;  -0.019;;;;;;;;;;;;;;;;;;
2010-03-21T00:01:38.312Z;0;3.1130e+01;0;     0.065; 12094.965;  51539.453; 0;  50100.172;  51539.453;  56511.320;  44416.355;128;   3.642; 226.070;;; 252.803; 310.303;  10.702;  -0.301;  -0.900;   3.643;   3.639;   3.434;  -1.214;  -0.019;;;;;;;;;;;;;;;;;;
2010-03-21T00:01:46.312Z;0;3.1420e+01;0;     0.076; 12094.965;  51769.180; 0;  50336.465;  51769.180;  56745.922;  44650.957;128;   3.643; 226.111;;; 252.845; 310.345;  10.705;  -0.301;  -0.899;   3.644;   3.640;   3.436;  -1.212;  -0.019;;;;;;;;;;;;;;;;;;
2010-03-21T00:01:54.312Z;0;3.1800e+01;0;     0.090; 12094.965;  52062.637; 0;  50638.227;  52062.637;  57045.543;  44950.578;128;   3.645; 226.153;;; 252.886; 310.386;  10.707;  -0.301;  -0.899;   3.645;   3.641;   3.438;  -1.210;  -0.019;;;;;;;;;;;;;;;;;;
2010-03-21T00:02:10.312Z;0;3.2020e+01;0;     0.095; 12038.601;  52222.062; 0;  50815.508;  52222.062;  57190.070;  45151.473;128;   3.647; 226.236;;; 252.968; 310.468;  10.711;  -0.301;  -0.898;   3.647;   3.643;   3.441;  -1.207;  -0.019;;;;;;;;;;;;;;;;;;
2010-03-21T00:02:18.311Z;0;3.1660e+01;0;     0.082; 12038.601;  51938.598; 0;  50524.152;  51938.598;  56900.750;  44862.148;128;   3.648; 226.278;;; 253.009; 310.509;  10.713;  -0.301;  -0.898;   3.648;   3.644;   3.443;  -1.205;  -0.019;;;;;;;;;;;;;;;;;;
2010-03-21T00:02:26.311Z;0;3.1770e+01;0;     0.079; 12038.601;  52023.812; 0;  50611.750;  52023.812;  56987.734;  44949.133;128;   3.649; 226.319;;; 253.051; 310.551;  10.716;  -0.300;  -0.898;   3.649;   3.645;   3.444;  -1.204;  -0.019;;;;;;;;;;;;;;;;;;
2010-03-21T00:02:34.311Z;0;2.9660e+01;0;     0.085; 12038.601;  50366.160; 0;  48906.258;  50366.160;  55294.590;  43255.988;128;   3.650; 226.361;;; 253.092; 310.592;  10.718;  -0.300;  -0.897;   3.650;   3.646;   3.446;  -1.202;  -0.019;;;;;;;;;;;;;;;;;;
2010-03-21T00:02:42.311Z;0;3.0370e+01;0;     0.089; 12038.601;  50933.770; 0;  49490.613;  50933.770;  55874.621;  43836.020;128;   3.651; 226.402;;; 253.133; 310.633;  10.720;  -0.300;  -0.897;   3.651;   3.647;   3.448;  -1.200;  -0.019;;;;;;;;;;;;;;;;;;
2010-03-21T00:02:58.311Z;0;3.3310e+01;0;     0.111; 11982.432;  53195.453; 0;  51828.348;  53195.453;  58164.699;  46182.266;128;   3.653; 226.486;;; 253.216; 310.716;  10.725;  -0.300;  -0.896;   3.653;   3.649;   3.451;  -1.197;  -0.019;;;;;;;;;;;;;;;;;;
2010-03-21T00:03:06.311Z;0;3.1710e+01;0;     0.086; 11982.432;  51970.387; 0;  50570.172;  51970.387;  56915.051;  44932.621;128;   3.654; 226.527;;; 253.257; 310.757;  10.727;  -0.300;  -0.896;   3.654;   3.650;   3.453;  -1.195;  -0.019;;;;;;;;;;;;;;;;;;
2010-03-21T00:03:14.311Z;0;3.4720e+01;0;     0.110; 11982.432;  54251.680; 0;  52911.871;  54251.680;  59241.199;  47258.766;128;   3.655; 226.569;;; 253.298; 310.798;  10.729;  -0.300;  -0.896;   3.655;   3.651;   3.454;  -1.194;  -0.019;;;;;;;;;;;;;;;;;;
2010-03-21T00:03:22.311Z;0;2.9830e+01;0;     0.095; 11982.432;  50486.992; 0;  49044.445;  50486.992;  55400.246;  43417.816;128;   3.656; 226.611;;; 253.340; 310.840;  10.731;  -0.299;  -0.895;   3.656;   3.652;   3.456;  -1.192;  -0.019;;;;;;;;;;;;;;;;;;
2010-03-21T00:03:30.311Z;0;3.1910e+01;0;     0.103; 11982.432;  52121.621; 0;  50725.582;  52121.621;  57069.387;  45086.953;128;   3.657; 226.653;;; 253.381; 310.881;  10.733;  -0.299;  -0.895;   3.657;   3.653;   3.458;  -1.190;  -0.019;;;;;;;;;;;;;;;;;;
2010-03-21T00:03:46.311Z;0;3.1150e+01;0;     0.094; 11926.516;  51518.395; 0;  50118.891;  51518.395;  56435.664;  44509.148;128;   3.659; 226.736;;; 253.464; 310.964;  10.738;  -0.299;  -0.895;   3.659;   3.655;   3.461;  -1.187;  -0.019;;;;;;;;;;;;;;;;;;
2010-03-21T00:03:54.311Z;0;3.1100e+01;0;     0.111; 11926.516;  51480.547; 0;  50079.984;  51480.547;  56397.031;  44470.516;128;   3.660; 226.778;;; 253.505; 311.005;  10.740;  -0.299;  -0.894;   3.660;   3.656;   3.462;  -1.185;  -0.019;;;;;;;;;;;;;;;;;;
2010-03-21T00:04:02.311Z;0;2.7430e+01;0;     0.110; 11926.516;  48520.953; 0;  47032.340;  48520.953;  53372.133;  41445.617;128;   3.661; 226.820;;; 253.547; 311.047;  10.742;  -0.299;  -0.894;   3.661;   3.657;   3.464;  -1.183;  -0.019;;;;;;;;;;;;;;;;;;
2010-03-21T00:04:10.311Z;0;2.5810e+01;0;     0.081; 11926.516;  47157.824; 0;  45624.758;  47157.824;  51976.070;  40049.555;128;   3.662; 226.862;;; 253.588; 311.088;  10.745;  -0.298;  -0.894;   3.662;   3.658;   3.466;  -1.182;  -0.019;;;;;;;;;;;;;;;;;;
2010-03-21T00:04:18.311Z;0;2.8640e+01;0;     0.112; 11926.516;  49514.035; 0;  48056.195;  49514.035;  54388.027;  42461.512;128;   3.663; 226.904;;; 253.630; 311.130;  10.747;  -0.298;  -0.893;   3.663;   3.659;   3.467;  -1.180;  -0.019;;;;;;;;;;;;;;;;;;
2010-03-21T00:04:34.310Z;0;2.6360e+01;0;     0.093; 11870.796;  47607.148; 0;  46103.414;  47607.148;  52419.305;  40548.512;128;   3.665; 226.987;;; 253.713; 311.213;  10.751;  -0.298;  -0.893;   3.665;   3.662;   3.471;  -1.177;  -0.019;;;;;;;;;;;;;;;;;;
2010-03-21T00:04:42.310Z;0;2.7840e+01;0;     0.099; 11870.796;  48844.531; 0;  47380.086;  48844.531;  53685.805;  41815.008;128;   3.666; 227.029;;; 253.755; 311.255;  10.753;  -0.298;  -0.892;   3.666;   3.663;   3.472;  -1.175;  -0.019;;;;;;;;;;;;;;;;;;
2010-03-21T00:04:50.310Z;0;2.8440e+01;0;     0.112; 11870.796;  49339.547; 0;  47890.238;  49339.547;  54192.047;  42321.250;128;   3.667; 227.071;;; 253.796; 311.296;  10.756;  -0.298;  -0.892;   3.667;   3.664;   3.474;  -1.173;  -0.019;;;;;;;;;;;;;;;;;;
2010-03-21T00:04:58.310Z;0;2.5890e+01;0;     0.086; 11870.796;  47210.566; 0;  45693.781;  47210.566;  52013.059;  40142.262;128;   3.668; 227.113;;; 253.838; 311.338;  10.758;  -0.298;  -0.892;   3.668;   3.665;   3.476;  -1.172;  -0.019;;;;;;;;;;;;;;;;;;
2010-03-21T00:05:06.310Z;0;2.7160e+01;0;     0.104; 11870.796;  48282.477; 0;  46800.445;  48282.477;  53110.715;  41239.922;128;   3.669; 227.155;;; 253.879; 311.379;  10.760;  -0.297;  -0.891;   3.669;   3.666;   3.477;  -1.170;  -0.019;;;;;;;;;;;;;;;;;;
2010-03-21T00:05:22.310Z;0;2.7650e+01;0;     0.107; 11815.328;  48678.574; 0;  47222.895;  48678.574;  53498.652;  41683.324;128;   3.671; 227.239;;; 253.963; 311.463;  10.764;  -0.297;  -0.891;   3.671;   3.668;   3.481;  -1.167;  -0.019;;;;;;;;;;;;;;;;;;
2010-03-21T00:05:30.310Z;0;2.8220e+01;0;     0.110; 11815.328;  49148.410; 0;  47707.066;  49148.410;  53979.117;  42163.789;128;   3.672; 227.281;;; 254.004; 311.504;  10.767;  -0.297;  -0.890;   3.672;   3.669;   3.482;  -1.165;  -0.019;;;;;;;;;;;;;;;;;;
2010-03-21T00:05:38.310Z;0;2.6120e+01;0;     0.082; 11815.328;  47393.531; 0;  45897.109;  47393.531;  52183.418;  40368.090;128;   3.673; 227.323;;; 254.046; 311.546;  10.769;  -0.297;  -0.890;   3.673;   3.670;   3.484;  -1.163;  -0.019;;;;;;;;;;;;;;;;;;
2010-03-21T00:05:46.310Z;0;2.6270e+01;0;     0.084; 11815.328;  47521.980; 0;  46029.738;  47521.980;  52314.961;  40499.633;128;   3.674; 227.365;;; 254.088; 311.588;  10.771;  -0.297;  -0.890;   3.674;   3.671;   3.486;  -1.162;  -0.019;;;;;;;;;;;;;;;;;;
2010-03-21T00:05:54.310Z;0;2.7610e+01;0;     0.105; 11815.328;  48639.023; 0;  47182.121;  48639.023;  53458.195;  41642.867;128;   3.675; 227.408;;; 254.129; 311.629;  10.773;  -0.297;  -0.890;   3.675;   3.672;   3.487;  -1.160;  -0.019;;;;;;;;;;;;;;;;;;
2010-03-21T00:06:10.310Z;0;2.8140e+01;0;     0.099; 11760.057;  49068.711; 0;  47638.633;  49068.711;  53880.176;  42120.121;128;   3.677; 227.492;;; 254.213; 311.713;  10.778;  -0.296;  -0.889;   3.677;   3.674;   3.491;  -1.157;  -0.019;;;;;;;;;;;;;;;;;;
2010-03-21T00:06:18.310Z;0;2.8190e+01;0;     0.090; 11760.057;  49108.422; 0;  47679.535;  49108.422;  53920.770;  42160.715;128;   3.678; 227.534;;; 254.255; 311.755;  10.780;  -0.296;  -0.889;   3.678;   3.675;   3.492;  -1.155;  -0.019;;;;;;;;;;;;;;;;;;
2010-03-21T00:06:26.310Z;0;2.8250e+01;0;     0.084; 11760.057;  49153.199; 0;  47725.652;  49153.199;  53966.543;  42206.484;128;   3.679; 227.576;;; 254.297; 311.797;  10.782;  -0.296;  -0.888;   3.679;   3.676;   3.494;  -1.153;  -0.019;;;;;;;;;;;;;;;;;;
2010-03-21T00:06:34.310Z;0;2.8860e+01;0;     0.092; 11760.057;  49651.141; 0;  48238.332;  49651.141;  54475.414;  42715.359;128;   3.680; 227.618;;; 254.338; 311.838;  10.784;  -0.296;  -0.888;   3.680;   3.677;   3.495;  -1.152;  -0.019;;;;;;;;;;;;;;;;;;
2010-03-21T00:06:42.310Z;0;2.9790e+01;0;     0.080; 11705.035;  50390.750; 0;  49012.445;  50390.750;  55213.148;  43508.113;128;   3.681; 227.661;;; 254.380; 311.880;  10.786;  -0.296;  -0.888;   3.681;   3.678;   3.497;  -1.150;  -0.019;;;;;;;;;;;;;;;;;;
2010-03-21T00:06:58.309Z;0;2.8680e+01;0;     0.086; 11705.035;  49496.488; 0;  48092.562;  49496.488;  54299.875;  42594.840;128;   3.683; 227.745;;; 254.464; 311.964;  10.791;  -0.295;  -0.887;   3.683;   3.680;   3.500;  -1.146;  -0.019;;;;;;;;;;;;;;;;;;
2010-03-21T00:07:06.309Z;0;2.9190e+01;0;     0.097; 11705.035;  49908.242; 0;  48516.230;  49908.242;  54720.469;  43015.434;128;   3.684; 227.787;;; 254.506; 312.006;  10.793;  -0.295;  -0.887;   3.685;   3.681;   3.502;  -1.145;  -0.019;;;;;;;;;;;;;;;;;;
2010-03-21T00:07:14.309Z;0;3.1540e+01;0;     0.104; 11705.035;  51773.172; 0;  50432.664;  51773.172;  56623.625;  44918.590;128;   3.685; 227.830;;; 254.548; 312.048;  10.795;  -0.295;  -0.886;   3.686;   3.682;   3.504;  -1.143;  -0.019;;;;;;;;;;;;;;;;;;
2010-03-21T00:07:22.309Z;0;3.0840e+01;0;     0.081; 11705.035;  51227.734; 0;  49872.566;  51227.734;  56067.305;  44362.270;128;   3.686; 227.872;;; 254.590; 312.090;  10.797;  -0.295;  -0.886;   3.687;   3.683;   3.505;  -1.141;  -0.019;;;;;;;;;;;;;;;;;;
2010-03-21T00:07:30.309Z;0;3.1110e+01;0;     0.082; 11650.212;  51420.469; 0;  50083.301;  51420.469;  56246.023;  44595.812;128;   3.688; 227.914;;; 254.632; 312.132;  10.800;  -0.295;  -0.886;   3.688;   3.684;   3.507;  -1.140;  -0.019;;;;;;;;;;;;;;;;;;
2010-03-21T00:07:46.309Z;0;3.1440e+01;0;     0.077; 11650.212;  51681.234; 0;  50350.992;  51681.234;  56511.934;  44861.719;128;   3.690; 227.999;;; 254.716; 312.216;  10.804;  -0.294;  -0.885;   3.690;   3.686;   3.510;  -1.136;  -0.019;;;;;;;;;;;;;;;;;;
2010-03-21T00:07:54.309Z;0;3.1700e+01;0;     0.085; 11650.212;  51883.148; 0;  50558.219;  51883.148;  56717.793;  45067.578;128;   3.691; 228.041;;; 254.758; 312.258;  10.806;  -0.294;  -0.885;   3.691;   3.687;   3.512;  -1.135;  -0.019;;;;;;;;;;;;;;;;;;
2010-03-21T00:08:02.309Z;0;3.2100e+01;0;     0.094; 11650.212;  52193.980; 0;  50877.148;  52193.980;  57034.637;  45384.426;128;   3.692; 228.084;;; 254.800; 312.300;  10.808;  -0.294;  -0.884;   3.692;   3.688;   3.513;  -1.133;  -0.019;;;;;;;;;;;;;;;;;;
2010-03-21T00:08:10.309Z;0;3.1830e+01;0;     0.079; 11595.641;  51973.152; 0;  50663.102;  51973.152;  56791.590;  45195.949;128;   3.693; 228.126;;; 254.842; 312.342;  10.810;  -0.294;  -0.884;   3.693;   3.689;   3.515;  -1.131;  -0.019;;;;;;;;;;;;;;;;;;
2010-03-21T00:08:18.309Z;0;3.4330e+01;0;     0.092; 11595.641;  53878.328; 0;  52615.734;  53878.328;  58732.023;  47136.387;128;   3.694; 228.168;;; 254.884; 312.384;  10.813;  -0.294;  -0.884;   3.694;   3.690;   3.517;  -1.130;  -0.019;;;;;;;;;;;;;;;;;;
2010-03-21T00:08:34.309Z;0;3.4510e+01;0;     0.071; 11595.641;  54011.793; 0;  52752.391;  54011.793;  58867.863;  47272.223;128;   3.696; 228.253;;; 254.968; 312.468;  10.817;  -0.294;  -0.883;   3.696;   3.692;   3.520;  -1.126;  -0.019;;;;;;;;;;;;;;;;;;
2010-03-21T00:08:42.309Z;0;3.4520e+01;0;     0.087; 11595.641;  54017.488; 0;  52758.223;  54017.488;  58873.660;  47278.020;128;   3.697; 228.296;;; 255.010; 312.510;  10.819;  -0.293;  -0.883;   3.697;   3.693;   3.522;  -1.125;  -0.019;;;;;;;;;;;;;;;;;;
2010-03-21T00:08:50.309Z;0;3.5220e+01;0;     0.094; 11595.641;  54541.180; 0;  53294.289;  54541.180;  59406.551;  47810.910;128;   3.698; 228.338;;; 255.052; 312.552;  10.821;  -0.293;  -0.883;   3.698;   3.694;   3.523;  -1.123;  -0.019;;;;;;;;;;;;;;;;;;
2010-03-21T00:08:58.309Z;0;3.5640e+01;0;     0.093; 11541.292;  54837.109; 0;  53608.836;  54837.109;  59689.172;  48147.879;128;   3.699; 228.381;;; 255.094; 312.594;  10.823;  -0.293;  -0.882;   3.699;   3.695;   3.525;  -1.121;  -0.019;;;;;;;;;;;;;;;;;;
2010-03-21T00:09:06.309Z;0;3.7520e+01;0;     0.094; 11541.292;  56206.395; 0;  55008.703;  56206.395;  61081.203;  49539.910;128;   3.700; 228.423;;; 255.137; 312.637;  10.826;  -0.293;  -0.882;   3.700;   3.697;   3.526;  -1.119;  -0.019;;;;;;;;;;;;;;;;;;
2010-03-21T00:09:22.308Z;0;3.6690e+01;0;     0.087; 11541.292;  55603.574; 0;  54392.609;  55603.574;  60468.512;  48927.219;128;   3.702; 228.509;;; 255.221; 312.721;  10.830;  -0.293;  -0.881;   3.702;   3.699;   3.530;  -1.116;  -0.019;;;;;;;;;;;;;;;;;;
2010-03-21T00:09:30.308Z;0;3.6380e+01;0;     0.098; 11541.292;  55380.082; 0;  54164.121;  55380.082;  60241.301;  48700.012;128;   3.703; 228.551;;; 255.263; 312.763;  10.832;  -0.293;  -0.881;   3.703;   3.700;   3.531;  -1.114;  -0.019;;;;;;;;;;;;;;;;;;
2010-03-21T00:09:38.308Z;0;3.6770e+01;0;     0.097; 11541.292;  55665.227; 0;  54455.633;  55665.227;  60531.184;  48989.891;128;   3.704; 228.594;;; 255.305; 312.805;  10.834;  -0.292;  -0.881;   3.704;   3.701;   3.533;  -1.113;  -0.019;;;;;;;;;;;;;;;;;;
2010-03-21T00:10:10.308Z;0;3.5460e+01;0;     0.102; 11487.168;  54692.328; 0;  53472.383;  54692.328;  59523.547;  48036.379;128;   3.708; 228.764;;; 255.475; 312.975;  10.843;  -0.292;  -0.879;   3.708;   3.705;   3.539;  -1.106;  -0.019;;;;;;;;;;;;;;;;;;
2010-03-21T00:10:18.308Z;0;3.4720e+01;0;     0.080; 11487.168;  54147.762; 0;  52915.262;  54147.762;  58969.648;  47482.480;128;   3.709; 228.807;;; 255.517; 313.017;  10.845;  -0.292;  -0.879;   3.709;   3.706;   3.541;  -1.104;  -0.019;;;;;;;;;;;;;;;;;;
2010-03-21T00:10:26.308Z;0;3.5480e+01;0;     0.103; 11433.268;  54696.383; 0;  53488.078;  54696.383;  59509.336;  48076.066;128;   3.710; 228.850;;; 255.559; 313.059;  10.847;  -0.292;  -0.879;   3.710;   3.707;   3.543;  -1.103;  -0.019;;;;;;;;;;;;;;;;;;
2010-03-21T00:10:34.308Z;0;3.5110e+01;0;     0.091; 11433.268;  54427.430; 0;  53213.020;  54427.430;  59235.840;  47802.570;128;   3.711; 228.893;;; 255.602; 313.102;  10.849;  -0.291;  -0.879;   3.711;   3.708;   3.544;  -1.101;  -0.019;;;;;;;;;;;;;;;;;;
2010-03-21T00:10:42.308Z;0;3.4800e+01;0;     0.088; 11433.268;  54195.090; 0;  52975.355;  54195.090;  58999.539;  47566.273;128;   3.712; 228.935;;; 255.644; 313.144;  10.852;  -0.291;  -0.878;   3.712;   3.709;   3.546;  -1.099;  -0.019;;;;;;;;;;;;;;;;;;
2010-03-21T00:10:58.308Z;0;3.5210e+01;0;     0.092; 11433.268;  54499.016; 0;  53286.238;  54499.016;  59308.641;  47875.371;128;   3.714; 229.021;;; 255.729; 313.229;  10.856;  -0.291;  -0.878;   3.715;   3.711;   3.549;  -1.096;  -0.019;;;;;;;;;;;;;;;;;;
2010-03-21T00:11:06.308Z;0;3.5220e+01;0;     0.093; 11433.268;  54505.406; 0;  53292.773;  54505.406;  59315.137;  47881.871;128;   3.716; 229.064;;; 255.771; 313.271;  10.858;  -0.291;  -0.877;   3.716;   3.712;   3.551;  -1.094;  -0.019;;;;;;;;;;;;;;;;;;
2010-03-21T00:11:14.308Z;0;3.5140e+01;0;     0.083; 11379.592;  54438.707; 0;  53236.055;  54438.707;  59229.047;  47849.457;128;   3.717; 229.106;;; 255.814; 313.314;  10.860;  -0.291;  -0.877;   3.717;   3.713;   3.552;  -1.092;  -0.019;;;;;;;;;;;;;;;;;;
2010-03-21T00:11:22.308Z;0;3.5260e+01;0;     0.099; 11379.592;  54521.777; 0;  53321.000;  54521.777;  59313.512;  47933.918;128;   3.718; 229.149;;; 255.856; 313.356;  10.862;  -0.290;  -0.877;   3.718;   3.714;   3.554;  -1.091;  -0.019;;;;;;;;;;;;;;;;;;
2010-03-21T00:11:30.308Z;0;3.5270e+01;0;     0.088; 11379.592;  54535.121; 0;  53334.645;  54535.121;  59327.078;  47947.488;128;   3.719; 229.192;;; 255.899; 313.399;  10.864;  -0.290;  -0.876;   3.719;   3.715;   3.556;  -1.089;  -0.019;;;;;;;;;;;;;;;;;;
2010-03-21T00:11:46.307Z;0;3.5740e+01;0;     0.101; 11379.592;  54880.188; 0;  53687.426;  54880.188;  59677.883;  48298.293;128;   3.721; 229.278;;; 255.984; 313.484;  10.869;  -0.290;  -0.876;   3.721;   3.717;   3.559;  -1.086;  -0.019;;;;;;;;;;;;;;;;;;
2010-03-21T00:11:54.307Z;0;3.5460e+01;0;     0.087; 11379.592;  54669.035; 0;  53471.566;  54669.035;  59463.230;  48083.637;128;   3.722; 229.321;;; 256.026; 313.526;  10.871;  -0.290;  -0.875;   3.722;   3.718;   3.560;  -1.084;  -0.019;;;;;;;;;;;;;;;;;;
2010-03-21T00:12:02.307Z;0;3.5640e+01;0;     0.096; 11326.141;  54796.930; 0;  53613.637;  54796.930;  59574.965;  48248.824;128;   3.723; 229.364;;; 256.069; 313.569;  10.873;  -0.290;  -0.875;   3.723;   3.719;   3.562;  -1.082;  -0.019;;;;;;;;;;;;;;;;;;
2010-03-21T00:12:10.307Z;0;3.5590e+01;0;     0.093; 11326.141;  54756.098; 0;  53571.902;  54756.098;  59533.461;  48207.320;128;   3.724; 229.407;;; 256.111; 313.611;  10.875;  -0.290;  -0.875;   3.724;   3.720;   3.564;  -1.081;  -0.019;;;;;;;;;;;;;;;;;;
2010-03-21T00:12:18.307Z;0;3.6620e+01;0;     0.098; 11326.141;  55508.379; 0;  54340.582;  55508.379;  60297.941;  48971.801;128;   3.725; 229.450;;; 256.154; 313.654;  10.877;  -0.289;  -0.874;   3.725;   3.721;   3.565;  -1.079;  -0.019;;;;;;;;;;;;;;;;;;
2010-03-21T00:12:34.307Z;0;3.5340e+01;0;     0.099; 11326.141;  54569.152; 0;  53380.812;  54569.152;  59343.434;  48017.293;128;   3.727; 229.536;;; 256.239; 313.739;  10.882;  -0.289;  -0.874;   3.727;   3.724;   3.568;  -1.076;  -0.019;;;;;;;;;;;;;;;;;;
2010-03-21T00:12:42.307Z;0;3.5600e+01;0;     0.092; 11272.940;  54751.105; 0;  53578.020;  54751.105;  59510.156;  48237.219;128;   3.728; 229.579;;; 256.282; 313.782;  10.884;  -0.289;  -0.874;   3.728;   3.725;   3.570;  -1.074;  -0.019;;;;;;;;;;;;;;;;;;
2010-03-21T00:12:50.307Z;0;3.5550e+01;0;     0.096; 11272.940;  54716.723; 0;  53542.887;  54716.723;  59475.215;  48202.273;128;   3.729; 229.622;;; 256.324; 313.824;  10.886;  -0.289;  -0.873;   3.729;   3.726;   3.572;  -1.072;  -0.019;;;;;;;;;;;;;;;;;;
2010-03-21T00:12:58.307Z;0;3.5120e+01;0;     0.078; 11272.940;  54399.516; 0;  53218.684;  54399.516;  59152.805;  47879.863;128;   3.730; 229.665;;; 256.367; 313.867;  10.888;  -0.289;  -0.873;   3.730;   3.727;   3.573;  -1.070;  -0.019;;;;;;;;;;;;;;;;;;
2010-03-21T00:13:06.307Z;0;3.5650e+01;0;     0.093; 11272.940;  54791.402; 0;  53619.199;  54791.402;  59551.109;  48278.168;128;   3.731; 229.708;;; 256.410; 313.910;  10.890;  -0.289;  -0.873;   3.731;   3.728;   3.575;  -1.069;  -0.019;;;;;;;;;;;;;;;;;;
2010-03-21T00:13:22.307Z;0;3.5530e+01;0;     0.087; 11272.940;  54701.852; 0;  53527.688;  54701.852;  59460.102;  48187.160;128;   3.733; 229.794;;; 256.495; 313.995;  10.894;  -0.288;  -0.872;   3.733;   3.730;   3.578;  -1.065;  -0.019;;;;;;;;;;;;;;;;;;
2010-03-21T00:13:30.307Z;0;3.5600e+01;0;     0.090; 11219.937;  54739.348; 0;  53577.133;  54739.348;  59480.004;  48260.070;128;   3.734; 229.837;;; 256.538; 314.038;  10.897;  -0.288;  -0.872;   3.734;   3.731;   3.580;  -1.064;  -0.019;;;;;;;;;;;;;;;;;;
2010-03-21T00:13:38.307Z;0;3.5610e+01;0;     0.096; 11219.937;  54752.965; 0;  53591.047;  54752.965;  59493.844;  48273.906;128;   3.735; 229.880;;; 256.581; 314.081;  10.899;  -0.288;  -0.871;   3.735;   3.732;   3.581;  -1.062;  -0.019;;;;;;;;;;;;;;;;;;
2010-03-21T00:13:46.307Z;0;3.5270e+01;0;     0.085; 11219.937;  54495.246; 0;  53327.711;  54495.246;  59231.945;  48012.012;128;   3.736; 229.924;;; 256.624; 314.124;  10.901;  -0.288;  -0.871;   3.737;   3.733;   3.583;  -1.060;  -0.019;;;;;;;;;;;;;;;;;;